Regional Weather Roundup
Issued by NWS Kansas City/Pleasant Hill, MO

Home | Current Version | Previous Version | Text Only | Print | Product List | Glossary On
Versions: 1 2 3 4 5 6 7 8 9 10 11 12 13 14 15 16 17 18 19 20 21 22 23 24 25 26 27 28
000
ASUS43 KEAX 060710
RWREAX

WEATHER ROUNDUP FOR EASTERN KANSAS AND NORTHWEST MISSOURI
NATIONAL WEATHER SERVICE KANSAS CITY/PLEASANT HILL MO
200 AM CDT FRI MAY 06 2016

KSZ040-057-103>105-MOZ028-029-037-043-060800-
...KANSAS CITY METROPOLITAN AREA...

CITY           SKY/WX    TMP DP  RH WIND       PRES   REMARKS
K.C. INTL      PTCLDY    54  41  61 S7        30.05S
K.C. DOWNTOWN  CLEAR     54  46  74 CALM      30.05S
LEES SUMMIT    PTCLDY    54  42  64 SW3       30.06S
OLATHE - IXD   PTCLDY    51  43  74 S5        30.07S
OLATHE - OJC   PTCLDY    53  43  68 CALM      30.06S
LAWRENCE       PTCLDY    47  45  93 CALM      30.06S

$$

MOZ001>008-011>017-020>025-030>033-038>040-044>046-053-054-060800-
...NORTHERN AND CENTRAL MISSOURI...

CITY           SKY/WX    TMP DP  RH WIND       PRES   REMARKS
ST. JOSEPH     PTCLDY    52  47  83 CALM      30.04F
MOSBY          SUNNY     48  46  93 CALM      30.06R
WARRENSBURG    CLEAR     46  43  87 CALM      30.06S
WHITEMAN AFB   CLEAR     49  43  78 E1        30.04F
CLINTON        CLEAR     46  45  93 CALM      30.06F
SEDALIA        CLEAR     52  39  61 S7        30.07S
WARSAW         NOT AVBL
CHILLICOTHE      N/A     47  45  93 CALM      30.05F
KIRKSVILLE     CLEAR     46  39  76 SW5       30.04S

$$

MOZ041-047>049-056>058-063>065-088>090-097-060800-
...EASTERN AND SOUTHERN MISSOURI...

CITY           SKY/WX    TMP DP  RH WIND       PRES   REMARKS
ST. LOUIS INTL CLEAR     53  43  68 W3        30.05R
SPIRIT OF STL  CLEAR     46  44  93 CALM      30.04S
COLUMBIA       CLEAR     50  40  68 SE5       30.06R
JEFFERSON CITY CLEAR     45  42  89 CALM      30.07R
ROLLA          CLEAR     41  37  86 S3        30.05S
OSAGE BEACH    CLEAR     43  32  65 CALM      30.07S
SPRINGFIELD    PTCLDY    45  37  73 S3        30.06S
JOPLIN         CLEAR     50  44  80 CALM      30.07F
WEST PLAINS    CLEAR     43  37  79 CALM      30.08S

$$

IAZ060-094-KSZ022-034>040-054-083-096-NEZ052-066-093-060800-
...KANSAS...SOUTHEAST NEBRASKA AND IOWA...

CITY           SKY/WX    TMP DP  RH WIND       PRES   REMARKS
TOPEKA         CLEAR     52  50  93 CALM      30.05F
MANHATTAN      CLEAR     50  43  77 W5        30.05F
EMPORIA        CLEAR     53  45  74 S7        30.06S
CHANUTE        CLEAR     51  47  86 CALM      30.06F
WICHITA        CLEAR     58  44  60 SE5       30.06S
OMAHA          PTCLDY    59  46  62 SE9       30.00S
LINCOLN        CLEAR     59  43  55 SE3       30.03S
FALLS CITY     PTCLDY    54  43  66 CALM      30.02F
LAMONI         CLEAR     53  40  61 SW9       30.03S
DES MOINES     CLEAR     55  41  59 SW6       30.00S

$$





USA.gov is the U.S. government's official web portal to all federal, state and local government web resources and services.